PIA452 OPSD-OPIS

Flight info

Callsign PIA452
Flight time 1h 0m
Altitude 28500
Route BIREB DCT DELDA DCT KAPMI DCT BOBAM
Aircraft A320/M-SDE3FGHIRWY/LB1

Departure

Time 2026-05-07 12:00
Airport Skardu International Airport (OPSD)

Arrival

Time 2026-05-07 13:01
Airport Islamabad International Airport (OPIS)
Time Latitude Longitude Altitude Speed Heading
2026-05-07 11:33 35.33069 75.54092 7359 ft 0 kts 147°
2026-05-07 11:49 35.33076 75.54086 7361 ft 4 kts 144°
2026-05-07 11:50 35.33094 75.54075 7360 ft 3 kts 178°
2026-05-07 11:50 35.33110 75.54084 7361 ft 4 kts 240°
2026-05-07 11:50 35.33122 75.54107 7361 ft 2 kts 237°
2026-05-07 11:50 35.33123 75.54109 7361 ft 0 kts 237°
2026-05-07 11:51 35.33069 75.54092 7362 ft 0 kts 147°
2026-05-07 11:53 35.33060 75.54102 7359 ft 5 kts 133°
2026-05-07 11:53 35.33065 75.54137 7358 ft 3 kts 44°
2026-05-07 11:53 35.33091 75.54135 7362 ft 6 kts 335°
2026-05-07 11:53 35.33133 75.54128 7360 ft 7 kts 32°
2026-05-07 11:54 35.33162 75.54179 7361 ft 8 kts 58°
2026-05-07 11:54 35.33194 75.54243 7363 ft 10 kts 58°
2026-05-07 11:54 35.33234 75.54324 7358 ft 12 kts 58°
2026-05-07 11:54 35.33295 75.54351 7359 ft 10 kts 339°
2026-05-07 11:55 35.33363 75.54292 7358 ft 14 kts 321°
2026-05-07 11:55 35.33456 75.54225 7358 ft 17 kts 322°
2026-05-07 11:55 35.33562 75.54136 7358 ft 21 kts 329°
2026-05-07 11:55 35.33694 75.54031 7357 ft 24 kts 326°
2026-05-07 11:56 35.33840 75.53912 7358 ft 27 kts 327°
2026-05-07 11:56 35.34000 75.53785 7360 ft 27 kts 327°
2026-05-07 11:56 35.34158 75.53665 7358 ft 27 kts 329°
2026-05-07 11:56 35.34318 75.53552 7360 ft 27 kts 326°
2026-05-07 11:57 35.34476 75.53429 7357 ft 27 kts 323°
2026-05-07 11:57 35.34627 75.53284 7360 ft 28 kts 324°
2026-05-07 11:57 35.34786 75.53157 7365 ft 28 kts 329°
2026-05-07 11:57 35.34944 75.53026 7364 ft 27 kts 328°
2026-05-07 11:58 35.35093 75.52905 7363 ft 11 kts 312°
2026-05-07 11:58 35.35128 75.52822 7365 ft 12 kts 310°
2026-05-07 11:58 35.35180 75.52801 7366 ft 8 kts 40°
2026-05-07 11:58 35.35176 75.52855 7366 ft 6 kts 141°
2026-05-07 11:59 35.35161 75.52868 7366 ft 1 kts 146°
2026-05-07 11:59 35.35154 75.52873 7366 ft 1 kts 146°
2026-05-07 11:59 35.35150 75.52877 7366 ft 1 kts 146°
2026-05-07 11:59 35.35143 75.52882 7364 ft 1 kts 148°
2026-05-07 12:00 35.35087 75.52927 7362 ft 35 kts 146°
2026-05-07 12:00 35.34624 75.53297 7360 ft 125 kts 147°
2026-05-07 12:00 35.33645 75.54068 7371 ft 204 kts 146°
2026-05-07 12:00 35.32377 75.55074 8127 ft 227 kts 144°
2026-05-07 12:01 35.31062 75.56194 9121 ft 227 kts 143°
2026-05-07 12:01 35.29812 75.57263 10138 ft 217 kts 144°
2026-05-07 12:01 35.28634 75.58358 10999 ft 208 kts 134°
2026-05-07 12:01 35.27782 75.59739 11805 ft 198 kts 111°
2026-05-07 12:02 35.27462 75.61304 12659 ft 182 kts 86°
2026-05-07 12:02 35.27677 75.62777 13122 ft 182 kts 63°
2026-05-07 12:02 35.28458 75.64083 13257 ft 200 kts 36°
2026-05-07 12:02 35.29770 75.64717 13555 ft 212 kts
2026-05-07 12:03 35.31195 75.64243 13964 ft 225 kts 326°
2026-05-07 12:03 35.32425 75.62931 14305 ft 243 kts 318°
2026-05-07 12:03 35.33705 75.61465 14646 ft 259 kts 318°
2026-05-07 12:03 35.35068 75.59896 14976 ft 278 kts 318°
2026-05-07 12:04 35.36487 75.58259 15455 ft 288 kts 318°
2026-05-07 12:04 35.37980 75.56543 15999 ft 299 kts 318°
2026-05-07 12:04 35.39468 75.54837 17243 ft 281 kts 319°
2026-05-07 12:04 35.40850 75.53252 18580 ft 267 kts 319°
2026-05-07 12:05 35.42243 75.51658 19071 ft 282 kts 318°
2026-05-07 12:05 35.43710 75.49987 19443 ft 299 kts 318°
2026-05-07 12:05 35.45280 75.48198 19802 ft 316 kts 319°
2026-05-07 12:05 35.46934 75.46309 20144 ft 333 kts 318°
2026-05-07 12:06 35.48681 75.44314 20502 ft 350 kts 319°
2026-05-07 12:06 35.50484 75.42253 20788 ft 367 kts 318°
2026-05-07 12:06 35.52394 75.40059 21054 ft 384 kts 318°
2026-05-07 12:06 35.54390 75.37763 21302 ft 401 kts 318°
2026-05-07 12:07 35.56383 75.35266 21569 ft 415 kts 310°
2026-05-07 12:07 35.58037 75.32360 22054 ft 423 kts 301°
2026-05-07 12:07 35.59299 75.29070 22645 ft 427 kts 291°
2026-05-07 12:07 35.60183 75.25562 23213 ft 431 kts 288°
2026-05-07 12:08 35.61043 75.22004 23762 ft 434 kts 288°
2026-05-07 12:08 35.61914 75.18439 24216 ft 437 kts 288°
2026-05-07 12:08 35.62784 75.14899 24659 ft 439 kts 288°
2026-05-07 12:08 35.63668 75.11290 25081 ft 441 kts 288°
2026-05-07 12:09 35.64556 75.07656 25506 ft 444 kts 288°
2026-05-07 12:09 35.65447 75.04001 25931 ft 445 kts 288°
2026-05-07 12:09 35.66326 75.00373 26355 ft 447 kts 289°
2026-05-07 12:09 35.67214 74.96693 26757 ft 450 kts 289°
2026-05-07 12:10 35.68105 74.92993 27129 ft 452 kts 289°
2026-05-07 12:10 35.68999 74.89274 27488 ft 455 kts 289°
2026-05-07 12:10 35.69859 74.85522 27863 ft 458 kts 285°
2026-05-07 12:10 35.70282 74.81604 28215 ft 465 kts 275°
2026-05-07 12:11 35.70125 74.77621 28530 ft 472 kts 265°
2026-05-07 12:11 35.68089 74.69877 28611 ft 481 kts 245°
2026-05-07 12:12 35.64981 74.62624 28590 ft 482 kts 245°
2026-05-07 12:12 35.61877 74.55324 28577 ft 482 kts 245°
2026-05-07 12:13 35.58765 74.48039 28574 ft 481 kts 245°
2026-05-07 12:13 35.55645 74.40753 28565 ft 481 kts 245°
2026-05-07 12:14 35.52533 74.33483 28541 ft 482 kts 245°
2026-05-07 12:14 35.49421 74.26253 28548 ft 481 kts 245°
2026-05-07 12:15 35.46273 74.18976 28539 ft 482 kts 245°
2026-05-07 12:15 35.42953 74.11901 28532 ft 484 kts 236°
2026-05-07 12:16 35.38132 74.06091 28530 ft 491 kts 217°
2026-05-07 12:16 35.32187 74.01904 28529 ft 493 kts 210°
2026-05-07 12:17 35.26166 73.97886 28550 ft 493 kts 210°
2026-05-07 12:17 35.20132 73.93843 28572 ft 493 kts 210°
2026-05-07 12:18 35.14135 73.89829 28600 ft 493 kts 210°
2026-05-07 12:18 35.08102 73.85801 28622 ft 493 kts 210°
2026-05-07 12:19 35.02074 73.81794 28637 ft 492 kts 210°
2026-05-07 12:19 34.96084 73.77824 28646 ft 492 kts 210°
2026-05-07 12:20 34.90059 73.73834 28649 ft 491 kts 210°
2026-05-07 12:20 34.84082 73.69878 28637 ft 491 kts 210°
2026-05-07 12:21 34.78075 73.65910 28620 ft 490 kts 210°
2026-05-07 12:21 34.72082 73.61947 28611 ft 490 kts 210°
2026-05-07 12:22 34.66120 73.58015 28587 ft 490 kts 210°
2026-05-07 12:22 34.60122 73.54073 28559 ft 489 kts 210°
2026-05-07 12:23 34.54126 73.50137 28533 ft 490 kts 210°
2026-05-07 12:23 34.48152 73.46220 28520 ft 489 kts 210°
2026-05-07 12:24 34.42154 73.42301 28492 ft 489 kts 210°
2026-05-07 12:24 34.36174 73.38398 28475 ft 489 kts 210°
2026-05-07 12:25 34.30179 73.34486 28464 ft 489 kts 211°
2026-05-07 12:25 34.25190 73.31230 28455 ft 489 kts 210°
2026-05-07 12:26 34.19214 73.27344 28441 ft 490 kts 210°
2026-05-07 12:26 34.12209 73.22787 28437 ft 490 kts 210°
2026-05-07 12:27 34.07217 73.19553 28426 ft 489 kts 210°
2026-05-07 12:27 34.01205 73.15669 28420 ft 489 kts 210°
2026-05-07 12:28 33.95203 73.11787 28407 ft 489 kts 210°
2026-05-07 12:28 33.89202 73.07921 28389 ft 489 kts 210°
2026-05-07 12:29 33.83203 73.04060 28377 ft 487 kts 210°
2026-05-07 12:29 33.77261 73.00237 28347 ft 488 kts 210°
2026-05-07 12:30 33.71265 72.96385 28350 ft 487 kts 210°
2026-05-07 12:30 33.65298 72.92559 28338 ft 487 kts 210°
2026-05-07 12:31 33.59335 72.88746 28334 ft 473 kts 210°
2026-05-07 12:31 33.56497 72.86940 28338 ft 450 kts 211°
2026-05-07 12:31 33.53835 72.85210 28338 ft 428 kts 215°
2026-05-07 12:31 33.51599 72.83019 28339 ft 402 kts 232°
2026-05-07 12:32 33.50022 72.80382 28338 ft 377 kts 246°
2026-05-07 12:32 33.49074 72.77559 28339 ft 353 kts 260°
2026-05-07 12:32 33.48684 72.74782 28337 ft 331 kts 272°
2026-05-07 12:32 33.48766 72.72120 28336 ft 309 kts 283°
2026-05-07 12:33 33.50040 72.67512 28333 ft 288 kts 303°
2026-05-07 12:33 33.51156 72.65527 28335 ft 285 kts 313°
2026-05-07 12:33 33.52531 72.63827 28330 ft 283 kts 322°
2026-05-07 12:34 33.54121 72.62453 28333 ft 282 kts 331°
2026-05-07 12:34 33.55885 72.61443 28329 ft 281 kts 340°
2026-05-07 12:34 33.57770 72.60822 28327 ft 281 kts 350°
2026-05-07 12:34 33.59697 72.60604 28331 ft 282 kts 359°
2026-05-07 12:35 33.61656 72.60795 28329 ft 284 kts
2026-05-07 12:35 33.63575 72.61401 28333 ft 287 kts 18°
2026-05-07 12:35 33.65416 72.62345 28330 ft 288 kts 22°
2026-05-07 12:35 33.67206 72.63461 28330 ft 290 kts 25°
2026-05-07 12:36 33.68962 72.64647 28329 ft 290 kts 26°
2026-05-07 12:36 33.70711 72.65856 28332 ft 290 kts 26°
2026-05-07 12:36 33.72464 72.67066 28329 ft 290 kts 26°
2026-05-07 12:36 33.74220 72.68263 28328 ft 290 kts 26°
2026-05-07 12:37 33.75955 72.69440 28330 ft 290 kts 27°
2026-05-07 12:37 33.77620 72.70834 28330 ft 293 kts 36°
2026-05-07 12:37 33.79082 72.72574 28331 ft 297 kts 46°
2026-05-07 12:37 33.80255 72.74639 28332 ft 302 kts 57°
2026-05-07 12:38 33.81082 72.76949 28333 ft 307 kts 68°
2026-05-07 12:38 33.81543 72.79476 28338 ft 312 kts 79°
2026-05-07 12:38 33.81582 72.82103 28341 ft 317 kts 91°
2026-05-07 12:38 33.81179 72.84731 28340 ft 321 kts 103°
2026-05-07 12:39 33.80341 72.87231 28344 ft 325 kts 115°
2026-05-07 12:39 33.79088 72.89510 28343 ft 330 kts 128°
2026-05-07 12:39 33.77436 72.91461 28347 ft 333 kts 141°
2026-05-07 12:39 33.75499 72.92947 28349 ft 336 kts 153°
2026-05-07 12:40 33.73311 72.93935 28345 ft 336 kts 167°
2026-05-07 12:40 33.71004 72.94361 28344 ft 336 kts 179°
2026-05-07 12:40 33.68676 72.94202 28342 ft 334 kts 193°
2026-05-07 12:40 33.66445 72.93467 28341 ft 330 kts 205°
2026-05-07 12:41 33.62346 72.91101 28336 ft 328 kts 213°
2026-05-07 12:41 33.58391 72.88362 28336 ft 327 kts 214°
2026-05-07 12:42 33.54459 72.85638 28338 ft 327 kts 215°
2026-05-07 12:42 33.52722 72.83932 28334 ft 318 kts 236°
2026-05-07 12:42 33.51616 72.81685 28336 ft 308 kts 257°
2026-05-07 12:43 33.51233 72.79243 28335 ft 299 kts 276°
2026-05-07 12:43 33.51551 72.76826 28335 ft 291 kts 295°
2026-05-07 12:43 33.52486 72.74715 28336 ft 285 kts 312°
2026-05-07 12:43 33.53903 72.73091 28337 ft 281 kts 328°
2026-05-07 12:44 33.55632 72.72092 28332 ft 280 kts 344°
2026-05-07 12:44 33.57553 72.71770 28141 ft 279 kts
2026-05-07 12:44 33.59455 72.72190 27763 ft 279 kts 18°
2026-05-07 12:44 33.61227 72.73148 27370 ft 279 kts 23°
2026-05-07 12:45 33.62939 72.74249 26986 ft 279 kts 25°
2026-05-07 12:45 33.64622 72.75398 26615 ft 277 kts 26°
2026-05-07 12:45 33.66283 72.76547 26266 ft 274 kts 26°
2026-05-07 12:45 33.67909 72.77665 25925 ft 272 kts 26°
2026-05-07 12:46 33.69463 72.78940 25584 ft 273 kts 39°
2026-05-07 12:46 33.70670 72.80711 25247 ft 276 kts 56°
2026-05-07 12:46 33.71378 72.82873 24902 ft 282 kts 73°
2026-05-07 12:46 33.71484 72.85247 24575 ft 288 kts 93°
2026-05-07 12:47 33.70939 72.87573 24242 ft 294 kts 112°
2026-05-07 12:47 33.69765 72.89602 23869 ft 300 kts 133°
2026-05-07 12:47 33.68076 72.91086 23280 ft 313 kts 153°
2026-05-07 12:47 33.65950 72.91803 22504 ft 325 kts 178°
2026-05-07 12:48 33.63704 72.91441 21850 ft 330 kts 199°
2026-05-07 12:48 33.61500 72.90517 21124 ft 339 kts 202°
2026-05-07 12:48 33.59265 72.89491 20382 ft 349 kts 202°
2026-05-07 12:48 33.56970 72.88414 19629 ft 359 kts 203°
2026-05-07 12:49 33.54646 72.87314 18877 ft 368 kts 202°
2026-05-07 12:49 33.52244 72.86165 18089 ft 376 kts 202°
2026-05-07 12:49 33.49787 72.84979 17169 ft 384 kts 203°
2026-05-07 12:49 33.47276 72.83767 16226 ft 392 kts 203°
2026-05-07 12:50 33.44711 72.82532 15279 ft 399 kts 203°
2026-05-07 12:50 33.42139 72.81299 14327 ft 406 kts 203°
2026-05-07 12:50 33.39493 72.80039 13335 ft 412 kts 203°
2026-05-07 12:50 33.36796 72.78762 12225 ft 417 kts 203°
2026-05-07 12:51 33.34142 72.77416 11594 ft 407 kts 210°
2026-05-07 12:51 33.31913 72.75520 11463 ft 382 kts 225°
2026-05-07 12:51 33.30267 72.73180 11343 ft 357 kts 240°
2026-05-07 12:51 33.29228 72.70580 11221 ft 335 kts 255°
2026-05-07 12:52 33.28774 72.67969 11105 ft 316 kts 268°
2026-05-07 12:52 33.28801 72.65391 10744 ft 307 kts 279°
2026-05-07 12:52 33.29294 72.62886 9996 ft 313 kts 291°
2026-05-07 12:52 33.30262 72.60520 9147 ft 320 kts 303°
2026-05-07 12:53 33.31673 72.58430 8235 ft 327 kts 316°
2026-05-07 12:53 33.33469 72.56736 7295 ft 329 kts 328°
2026-05-07 12:53 33.35490 72.55602 6488 ft 321 kts 341°
2026-05-07 12:53 33.37649 72.55032 5690 ft 313 kts 354°
2026-05-07 12:54 33.39788 72.55053 5132 ft 300 kts
2026-05-07 12:54 33.41780 72.55585 4934 ft 285 kts 19°
2026-05-07 12:54 33.43535 72.56497 4871 ft 266 kts 28°
2026-05-07 12:54 33.45115 72.57483 4756 ft 251 kts 28°
2026-05-07 12:55 33.46633 72.58425 4647 ft 239 kts 28°
2026-05-07 12:55 33.48071 72.59318 4516 ft 227 kts 29°
2026-05-07 12:55 33.49445 72.60176 4416 ft 218 kts 29°
2026-05-07 12:55 33.50749 72.60993 4298 ft 209 kts 29°
2026-05-07 12:56 33.52001 72.61776 4215 ft 196 kts 30°
2026-05-07 12:56 33.53175 72.62510 4094 ft 183 kts 31°
2026-05-07 12:56 33.54253 72.63183 3976 ft 165 kts 32°
2026-05-07 12:56 33.55213 72.63781 3880 ft 144 kts 30°
2026-05-07 12:57 33.56164 72.64402 3797 ft 172 kts 36°
2026-05-07 12:57 33.56968 72.65473 3716 ft 173 kts 64°
2026-05-07 12:57 33.57233 72.66844 3709 ft 168 kts 94°
2026-05-07 12:57 33.57048 72.68220 3647 ft 167 kts 103°
2026-05-07 12:58 33.56834 72.69582 3485 ft 165 kts 102°
2026-05-07 12:58 33.56626 72.70918 3307 ft 165 kts 103°
2026-05-07 12:58 33.56418 72.72253 3105 ft 161 kts 103°
2026-05-07 12:58 33.56214 72.73568 2907 ft 154 kts 102°
2026-05-07 12:59 33.56030 72.74757 2730 ft 137 kts 102°
2026-05-07 12:59 33.55864 72.75823 2566 ft 126 kts 103°
2026-05-07 12:59 33.55701 72.76867 2401 ft 126 kts 101°
2026-05-07 12:59 33.55537 72.77915 2235 ft 128 kts 103°
2026-05-07 13:00 33.55372 72.78971 2062 ft 130 kts 99°
2026-05-07 13:00 33.55212 72.80004 1977 ft 125 kts 102°
2026-05-07 13:00 33.55050 72.81023 1781 ft 125 kts 102°
2026-05-07 13:00 33.54901 72.81959 1759 ft 94 kts 101°
2026-05-07 13:01 33.54842 72.82361 1757 ft 30 kts 89°
2026-05-07 13:01 33.54904 72.82428 1753 ft 7 kts 356°
2026-05-07 13:01 33.54967 72.82427 1751 ft 11 kts
2026-05-07 13:01 33.55061 72.82444 1763 ft 19 kts
2026-05-07 13:02 33.55199 72.82512 1770 ft 20 kts 83°
2026-05-07 13:02 33.55181 72.82682 1771 ft 22 kts 101°
2026-05-07 13:02 33.55152 72.82869 1771 ft 24 kts 99°
2026-05-07 13:02 33.55210 72.82937 1771 ft 12 kts 335°
2026-05-07 13:03 33.55264 72.82896 1770 ft 0 kts 327°